Temperature
-4 -4 -4 -4 -4 -5 -5 -5 -4 -4 -4 -3 -4 -5 -4 -4 -4 -4 -4 -4 -4 -3 -3 -3 -3 -3 -3 -3 -3 -3 -2 -2 -2 -2 -2 -2 -2 -2 -2 -2 -2 -2 -2 -2
-5 -4 -5 -4 -4 -5 -5 -5 -5 -5 -4 -5 -5 -5 -5 -5 -5 -5 -5 -5 -4 -4 -4 -4 -4 -4 -4 -3 -3 -3 -3 -3 -3 -3 -3 -3 -3 -3 -3 -3 -3 -3 -3 -3
-5 -6 -5 -5 -5 -5 -6 -6 -6 -5 -4 -5 -6 -6 -6 -5 -5 -6 -5 -5 -5 -5 -4 -4 -4 -4 -4 -4 -4 -4 -3 -3 -3 -3 -3 -3 -3 -3 -3 -3 -4 -4 -4 -4
-6 -6 -5 -4 -6 -6 -6 -6 -7 -6 -6 -6 -6 -6 -6 -5 -5 -5 -6 -5 -5 -5 -5 -4 -4 -4 -4 -4 -4 -4 -4 -4 -4 -4 -4 -4 -4 -4 -4 -4 -4 -4 -4 -4
-7 -7 -6 -5 -6 -7 -7 -7 -8 -8 -8 -7 -7 -7 -6 -6 -6 -6 -6 -6 -6 -5 -5 -5 -5 -5 -5 -5 -5 -5 -5 -5 -5 -5 -5 -5 -5 -5 -5 -5 -5 -5 -5 -5
-7 -6 -6 -5 -7 -8 -7 -6 -7 -8 -8 -8 -8 -7 -7 -6 -6 -6 -6 -6 -6 -6 -5 -5 -5 -5 -5 -5 -5 -5 -5 -5 -5 -5 -5 -5 -5 -5 -5 -6 -6 -6 -6 -6
-7 -7 -7 -8 -8 -8 -6 -6 -8 -8 -8 -8 -9 -8 -7 -7 -7 -7 -7 -7 -6 -6 -6 -6 -6 -6 -6 -5 -6 -6 -6 -6 -6 -6 -6 -6 -6 -6 -6 -6 -6 -6 -6 -6
-8 -8 -7 -9 -9 -8 -8 -8 -8 -8 -8 -8 -8 -8 -8 -8 -8 -8 -7 -7 -7 -7 -6 -6 -6 -6 -6 -6 -6 -6 -7 -7 -7 -7 -7 -7 -6 -6 -7 -7 -7 -7 -7 -7
-8 -7 -8 -9 -8 -8 -8 -8 -8 -8 -9 -9 -9 -9 -8 -8 -8 -8 -8 -8 -8 -7 -7 -7 -7 -7 -7 -7 -7 -7 -7 -7 -7 -7 -7 -7 -7 -7 -7 -8 -8 -8 -8 -8
-10 -10 -10 -9 -9 -8 -8 -9 -9 -9 -9 -9 -9 -9 -9 -9 -9 -9 -9 -8 -8 -8 -8 -8 -8 -8 -8 -8 -8 -8 -8 -8 -8 -8 -8 -8 -8 -8 -8 -8 -8 -8 -8 -8
-11 -11 -10 -9 -9 -9 -9 -9 -9 -9 -9 -9 -9 -9 -10 -10 -10 -9 -9 -9 -9 -9 -9 -9 -9 -9 -9 -9 -9 -9 -9 -9 -9 -9 -9 -9 -9 -9 -9 -8 -9 -9 -9 -9
-10 -10 -11 -10 -9 -9 -9 -9 -9 -9 -9 -10 -10 -10 -10 -10 -10 -10 -10 -10 -10 -9 -9 -9 -9 -9 -10 -10 -10 -10 -10 -10 -10 -10 -10 -10 -9 -9 -9 -9 -9 -9 -9 -9
-10 -10 -10 -10 -10 -10 -10 -10 -10 -10 -10 -10 -10 -10 -11 -10 -10 -10 -10 -10 -10 -10 -10 -10 -10 -10 -10 -10 -10 -10 -10 -10 -10 -10 -10 -10 -10 -10 -10 -10 -10 -10 -10 -10
-10 -10 -11 -10 -10 -10 -10 -10 -10 -10 -11 -11 -11 -11 -11 -11 -11 -11 -11 -11 -11 -10 -10 -10 -10 -11 -11 -11 -11 -11 -11 -11 -11 -11 -11 -11 -11 -11 -11 -11 -11 -10 -10 -10
-10 -11 -11 -11 -11 -11 -11 -11 -11 -11 -11 -11 -11 -11 -11 -11 -11 -11 -11 -11 -11 -11 -11 -11 -11 -11 -11 -12 -12 -12 -12 -12 -12 -12 -11 -11 -11 -11 -11 -11 -11 -11 -11 -11
-11 -11 -11 -11 -11 -11 -11 -11 -11 -12 -12 -12 -12 -12 -12 -12 -12 -12 -12 -12 -11 -11 -11 -11 -12 -12 -12 -12 -12 -12 -12 -12 -12 -12 -12 -12 -12 -12 -12 -12 -12 -12 -12 -12
-12 -12 -12 -12 -12 -12 -12 -12 -12 -12 -12 -12 -12 -12 -12 -12 -12 -12 -12 -12 -12 -12 -12 -12 -12 -13 -13 -13 -13 -13 -13 -13 -13 -13 -13 -12 -12 -12 -12 -12 -12 -12 -12 -12
-12 -12 -12 -12 -12 -12 -12 -12 -12 -12 -13 -13 -13 -13 -13 -13 -13 -13 -13 -13 -13 -12 -13 -13 -13 -13 -13 -13 -13 -13 -13 -13 -13 -13 -13 -13 -13 -13 -13 -13 -13 -13 -13 -13
-12 -12 -13 -13 -13 -13 -13 -13 -13 -13 -13 -13 -13 -13 -13 -13 -13 -13 -13 -13 -13 -13 -13 -13 -13 -13 -13 -13 -13 -14 -14 -14 -14 -14 -14 -13 -13 -13 -13 -13 -13 -13 -13 -13
-13 -13 -13 -13 -13 -13 -13 -13 -13 -13 -13 -13 -13 -13 -13 -13 -13 -13 -14 -14 -14 -14 -14 -14 -14 -13 -13 -14 -14 -14 -14 -14 -14 -14 -14 -14 -14 -14 -14 -14 -14 -14 -14 -14
-13 -13 -13 -13 -13 -13 -13 -13 -13 -13 -13 -14 -14 -14 -14 -14 -14 -14 -14 -14 -14 -14 -14 -14 -14 -14 -14 -14 -14 -14 -14 -14 -14 -14 -14 -14 -14 -14 -14 -14 -14 -14 -14 -14
-13 -13 -13 -13 -13 -13 -14 -14 -14 -14 -14 -14 -14 -14 -14 -14 -14 -14 -14 -14 -14 -14 -14 -14 -14 -14 -14 -14 -14 -14 -14 -15 -15 -15 -15 -14 -15 -15 -14 -14 -14 -14 -14 -14
-14 -14 -14 -14 -14 -14 -14 -14 -14 -14 -14 -14 -14 -14 -15 -15 -15 -15 -15 -15 -15 -15 -15 -15 -15 -15 -15 -15 -15 -15 -15 -15 -15 -15 -15 -15 -15 -15 -15 -15 -15 -15 -14 -14
-14 -14 -14 -14 -14 -14 -14 -14 -14 -14 -15 -15 -15 -15 -15 -15 -15 -15 -15 -15 -15 -15 -15 -15 -15 -15 -15 -15 -15 -15 -15 -15 -15 -15 -15 -15 -15 -15 -15 -15 -15 -15 -15 -15
-14 -14 -14 -14 -14 -14 -15 -15 -15 -15 -15 -15 -15 -15 -15 -15 -15 -15 -15 -15 -15 -15 -15 -15 -15 -15 -15 -15 -15 -15 -15 -15 -15 -15 -15 -15 -15 -15 -15 -15 -15 -15 -15 -15
-14 -15 -15 -15 -15 -15 -15 -15 -15 -15 -15 -15 -15 -15 -16 -16 -16 -16 -16 -16 -16 -16 -16 -16 -16 -16 -16 -16 -16 -16 -16 -16 -16 -15 -15 -15 -15 -15 -15 -15 -15 -15 -15 -15
-15 -15 -15 -15 -15 -15 -15 -16 -16 -16 -16 -16 -16 -16 -16 -16 -16 -16 -16 -16 -16 -16 -16 -16 -16 -16 -16 -16 -16 -16 -16 -16 -16 -16 -16 -16 -16 -15 -15 -15 -15 -15 -15 -15
Wind_Speed
6 5 3 5 6 6 7 7 8 8 9 9 7 5 4 4 3 3 4 4 3 2 2 2 2 2 2 2 2 1 2 3 3 2 3 3 3 3 3 3 4 3 3 3
4 4 4 6 8 8 8 7 7 8 10 7 5 3 3 4 4 4 4 4 4 3 3 3 3 3 3 3 3 2 2 3 2 2 2 3 3 3 3 3 3 3 3 4
3 3 3 6 7 7 5 5 6 9 9 4 3 4 4 4 4 4 5 5 4 4 4 4 4 4 4 3 2 2 3 3 2 2 3 3 3 3 3 3 3 3 3 3
1 2 5 6 2 4 5 6 6 6 6 4 4 5 4 3 3 4 5 5 5 4 5 4 4 4 3 2 2 3 3 3 3 3 3 3 3 3 3 3 3 3 3 4
1 2 7 6 2 2 3 5 4 6 7 5 3 3 3 3 2 3 4 5 5 5 5 4 4 3 2 2 2 2 3 3 3 3 3 3 3 3 3 3 3 3 3 4
2 3 6 6 2 1 1 5 3 2 5 5 2 3 5 4 4 4 5 4 4 4 4 3 4 3 2 2 2 3 4 3 3 3 4 4 4 3 3 3 3 3 3 3
4 5 7 5 3 1 2 5 4 2 4 3 3 6 5 5 5 5 5 5 4 4 3 4 3 2 2 2 3 3 3 2 2 3 3 4 3 3 3 2 2 2 3 3
3 4 7 2 2 4 4 3 3 3 3 3 5 6 6 6 6 6 5 5 4 4 4 3 2 1 1 2 3 2 1 1 2 2 2 2 3 2 3 3 2 2 2 3
6 6 3 2 4 3 2 3 4 4 5 4 5 5 6 5 6 5 5 5 4 3 4 4 2 1 2 3 2 1 1 1 1 1 1 2 3 3 3 3 3 3 3 3
4 6 6 5 4 4 4 5 6 5 5 4 5 6 6 5 5 5 5 4 3 3 3 4 3 3 2 2 1 0 1 1 1 1 1 1 2 3 3 3 3 3 4 3
6 6 6 6 6 6 6 5 5 5 4 4 5 5 5 5 5 5 5 4 3 2 3 3 3 3 3 2 1 1 1 1 1 1 1 1 1 2 3 4 5 5 4 4
7 5 4 7 6 5 5 6 5 5 5 4 4 5 5 4 4 4 4 4 3 3 3 3 3 3 3 2 1 1 1 1 1 1 1 1 1 1 3 3 5 6 6 6
7 5 6 7 7 5 6 6 5 4 4 5 4 3 4 4 4 3 4 3 3 3 3 3 3 3 3 2 1 1 2 2 1 1 1 1 1 1 2 3 3 4 5 6
4 3 5 5 6 6 5 5 4 3 3 3 3 3 3 3 3 4 4 4 3 3 3 3 3 4 4 2 1 1 1 2 2 2 2 2 2 2 2 2 2 3 4 5
4 4 6 6 6 5 3 3 3 4 4 3 2 2 3 3 4 4 4 3 2 2 3 3 3 4 3 2 1 1 1 1 1 2 2 2 2 2 2 3 3 3 3 3
5 4 4 5 5 4 3 3 3 4 4 3 3 3 3 2 3 3 3 2 2 3 3 3 4 4 3 2 1 1 1 3 2 1 1 1 1 2 2 2 3 3 3 3
3 4 4 4 4 4 3 3 3 3 3 3 4 3 3 2 3 3 3 2 2 3 3 3 4 3 3 2 1 1 1 2 3 2 1 1 2 2 2 2 2 3 3 4
3 4 4 4 4 4 4 3 3 3 3 3 3 2 2 2 3 3 3 3 3 4 4 4 3 3 2 2 1 1 1 1 1 2 2 2 2 2 2 2 2 3 3 4
3 3 3 3 3 3 3 3 3 3 3 2 2 2 2 2 3 3 3 3 3 4 5 4 6 4 2 3 2 1 1 1 1 1 2 3 2 2 2 2 3 3 4 4
2 2 2 2 2 1 2 2 2 3 3 2 2 2 3 3 3 3 2 2 3 3 4 4 4 3 3 3 3 1 1 2 2 2 2 2 2 2 2 3 3 4 4 4
3 3 2 2 2 2 2 2 2 3 3 2 2 2 3 4 3 2 2 3 4 4 4 5 3 3 3 3 3 1 1 2 2 2 2 2 2 3 3 3 4 4 4 4
2 2 3 2 2 3 3 2 2 2 3 3 2 3 3 4 4 3 3 4 4 6 4 3 3 4 4 3 1 1 2 2 2 2 2 3 3 3 4 4 4 4 4 4
2 2 2 2 2 3 3 3 2 2 3 3 3 3 3 3 3 3 4 3 3 6 4 3 5 7 5 2 1 1 2 2 2 3 3 3 3 4 4 5 5 4 4 5
2 2 2 2 2 2 3 4 3 3 3 3 3 3 3 3 3 3 4 6 7 7 4 5 7 7 5 1 1 2 2 3 3 3 3 3 4 4 4 5 5 5 5 6
2 2 2 2 2 2 3 3 4 3 3 3 4 4 3 3 3 4 4 4 7 7 4 6 7 7 4 2 2 3 3 4 4 4 3 4 4 4 5 5 5 5 5 6
2 2 2 2 2 2 2 2 3 3 3 4 4 4 3 3 3 4 4 4 5 6 4 3 4 5 3 3 3 4 4 4 5 4 4 4 5 5 5 5 6 6 6 6
2 2 2 2 2 2 2 2 3 4 4 4 5 4 4 4 3 4 4 4 4 4 4 3 3 3 3 3 4 4 4 4 4 5 5 5 5 5 6 6 6 6 7 7
Wind_Direction
258 267 249 251 253 226 214 218 227 249 250 264 273 276 287 297 313 329 330 333 330 324 320 320 320 315 298 284 267 218 186 194 210 209 194 182 178 182 183 185 195 193 192 201
287 272 267 269 259 240 234 233 242 262 268 269 278 290 286 285 292 302 306 311 312 308 304 297 294 291 282 268 259 227 207 214 212 199 193 191 185 180 180 186 191 192 199 200
277 308 334 275 241 221 220 217 206 238 255 280 289 278 271 273 282 289 296 300 298 296 289 284 280 274 270 258 247 220 218 224 215 203 202 199 189 182 189 193 191 204 214 207
278 20 253 251 230 214 228 243 227 246 271 278 272 289 283 271 279 296 301 300 299 298 295 289 284 288 281 264 229 219 222 225 221 213 212 199 188 194 197 198 198 211 225 218
169 244 276 290 274 189 219 272 249 249 271 283 297 323 300 304 288 278 285 288 288 287 289 291 290 287 278 267 238 224 229 228 220 210 206 196 199 204 202 201 213 220 227 220
171 218 250 260 266 238 152 281 289 256 265 278 312 293 278 313 317 305 301 301 302 303 303 296 292 280 248 246 236 238 239 234 221 210 205 204 204 206 208 211 220 226 237 230
210 235 262 270 280 130 181 267 313 284 267 264 242 245 276 312 317 316 313 313 314 309 299 290 289 268 250 247 248 256 254 240 224 215 212 208 203 207 194 204 207 223 242 251
186 218 256 282 131 178 233 286 303 296 285 271 266 282 295 303 311 320 323 323 322 316 311 318 320 287 272 272 279 286 260 235 230 223 220 207 185 197 195 187 200 224 242 259
203 221 247 187 205 239 258 274 284 291 297 292 288 289 298 304 310 313 313 315 321 317 319 332 338 313 275 296 313 309 279 242 239 234 225 210 194 196 200 194 202 221 226 243
248 264 266 265 266 282 283 276 284 286 285 283 279 288 296 301 307 311 312 313 319 325 325 324 327 321 297 298 305 278 255 267 252 231 237 223 215 206 205 209 213 222 230 238
258 276 297 276 267 279 286 284 285 288 277 271 272 284 287 294 301 306 313 316 318 310 305 309 319 322 322 318 298 258 256 260 256 247 225 228 240 226 227 231 227 228 232 232
248 252 246 275 289 291 287 288 283 284 293 292 272 274 284 289 296 302 308 313 317 314 310 312 317 317 321 321 290 230 264 267 256 253 242 228 241 308 307 274 271 266 258 254
250 270 261 273 288 286 281 287 286 277 277 289 292 279 283 290 304 308 308 308 304 301 305 312 318 318 321 315 292 246 248 257 252 249 243 239 233 239 287 319 308 288 276 271
255 269 274 275 280 291 286 289 292 291 287 281 287 294 293 300 310 310 303 301 305 313 320 322 322 317 317 313 294 279 271 273 267 242 239 237 235 238 241 252 283 295 297 292
270 251 258 281 293 299 299 298 303 307 315 317 311 305 305 306 307 307 309 320 333 340 333 333 327 319 325 321 305 287 283 266 259 249 241 238 237 239 242 249 259 277 292 297
302 296 287 289 291 298 307 304 296 302 313 316 320 314 308 303 307 317 328 342 349 329 323 322 313 312 317 316 309 300 289 304 304 264 248 250 247 245 247 250 258 268 279 288
302 300 300 301 299 303 304 296 286 293 305 308 310 315 324 334 339 338 339 342 331 317 315 308 304 312 311 298 278 281 282 294 310 302 266 255 251 250 252 254 260 272 281 288
270 277 278 275 280 290 304 313 311 310 305 305 321 339 344 339 323 321 326 337 343 340 331 313 312 314 308 297 279 273 272 270 265 265 269 266 264 257 257 260 265 273 282 290
294 292 294 288 280 279 292 305 311 314 317 323 329 325 317 312 311 315 329 350 344 329 324 322 329 335 312 300 306 265 267 266 268 275 273 283 295 282 265 262 267 271 276 282
327 327 326 329 330 304 302 310 318 323 320 320 321 326 327 321 322 323 332 325 300 287 299 313 314 309 299 296 308 267 258 252 260 273 274 268 272 275 273 272 272 273 274 275
331 337 339 336 336 336 326 322 322 318 323 335 330 313 310 315 320 320 322 313 311 308 310 317 320 304 299 300 304 267 256 258 257 260 265 267 270 273 275 276 276 276 276 278
331 334 330 332 338 336 339 340 329 325 332 334 326 316 314 315 316 310 286 277 297 314 320 306 301 307 319 325 322 280 268 264 262 261 262 265 268 272 273 274 274 275 276 276
322 323 329 332 327 324 336 341 333 328 321 315 311 306 298 294 297 292 298 300 298 309 315 299 302 313 328 349 325 290 280 273 269 267 266 266 266 267 270 273 274 275 277 279
323 331 330 332 339 343 335 333 331 321 308 305 300 292 289 296 296 274 268 296 310 312 307 302 309 314 327 336 298 281 275 273 268 265 264 265 265 267 269 272 275 276 276 277
327 328 334 338 333 319 314 321 327 322 315 309 304 300 289 274 273 289 292 292 303 311 308 307 310 315 320 296 285 277 274 269 267 266 260 266 267 269 271 273 274 277 277 276
325 321 314 307 301 305 314 319 315 314 316 315 315 311 304 293 282 287 291 289 289 301 302 293 294 300 291 282 278 276 275 282 289 282 268 267 268 269 272 274 276 274 274 276
330 330 329 325 321 317 312 309 305 306 306 301 302 306 306 306 302 298 295 293 293 292 289 285 280 277 276 278 281 280 278 275 274 271 270 267 266 266 269 271 274 277 278 278
Height
1484 1481 1482 1482 1481 1482 1483 1481 1480 1474 1472 1467 1465 1465 1464 1463 1462 1461 1461 1460 1460 1459 1459 1459 1459 1459 1459 1460 1460 1462 1463 1464 1465 1467 1469 1471 1472 1474 1476 1478 1479 1481 1483 1484
1484 1480 1481 1479 1476 1477 1477 1477 1477 1473 1469 1464 1464 1464 1463 1461 1460 1460 1459 1459 1458 1458 1457 1457 1456 1456 1456 1456 1457 1458 1459 1460 1462 1463 1465 1466 1468 1470 1471 1473 1474 1476 1478 1479
1485 1484 1480 1478 1474 1473 1474 1473 1473 1470 1465 1463 1463 1462 1461 1460 1459 1458 1458 1457 1456 1456 1455 1454 1453 1453 1453 1453 1454 1454 1455 1456 1457 1459 1460 1462 1464 1465 1467 1468 1469 1471 1473 1474
1487 1487 1485 1472 1470 1469 1469 1468 1468 1466 1462 1462 1461 1460 1459 1459 1458 1457 1456 1455 1454 1453 1452 1451 1451 1451 1450 1450 1450 1451 1452 1453 1454 1455 1456 1458 1459 1461 1462 1464 1465 1466 1468 1469
1488 1489 1481 1471 1469 1470 1470 1467 1465 1464 1461 1460 1460 1458 1457 1457 1457 1456 1455 1454 1452 1451 1449 1448 1448 1447 1447 1447 1447 1447 1448 1449 1450 1451 1452 1454 1455 1457 1458 1459 1460 1462 1463 1465
1488 1485 1481 1469 1468 1467 1469 1467 1462 1461 1460 1460 1459 1460 1457 1455 1454 1453 1452 1451 1449 1448 1446 1445 1445 1444 1444 1443 1444 1444 1445 1445 1446 1448 1449 1450 1451 1453 1454 1455 1456 1458 1459 1460
1485 1484 1476 1470 1467 1467 1470 1465 1462 1460 1459 1458 1458 1457 1455 1453 1452 1451 1449 1448 1446 1445 1443 1442 1442 1441 1440 1440 1440 1441 1442 1442 1443 1444 1446 1447 1448 1449 1450 1451 1452 1453 1454 1456
1484 1483 1475 1467 1467 1468 1466 1462 1461 1459 1458 1457 1455 1453 1452 1451 1449 1448 1446 1444 1443 1442 1440 1440 1439 1438 1437 1437 1438 1438 1439 1439 1440 1441 1442 1443 1444 1445 1446 1447 1448 1449 1450 1451
1476 1472 1466 1464 1464 1463 1462 1461 1459 1458 1456 1455 1453 1451 1449 1448 1446 1444 1443 1441 1440 1439 1438 1437 1436 1436 1435 1435 1435 1435 1436 1436 1437 1438 1439 1440 1440 1441 1442 1443 1444 1444 1445 1446
1472 1466 1463 1462 1461 1460 1460 1458 1457 1456 1454 1453 1451 1449 1447 1445 1443 1441 1440 1439 1438 1437 1436 1435 1434 1434 1433 1433 1433 1433 1433 1433 1434 1434 1435 1436 1437 1438 1438 1439 1440 1440 1441 1442
1468 1464 1461 1458 1458 1457 1456 1455 1453 1452 1451 1450 1448 1446 1444 1442 1441 1439 1438 1437 1436 1435 1433 1432 1432 1431 1431 1431 1431 1430 1430 1431 1431 1431 1432 1432 1433 1434 1435 1436 1436 1437 1437 1438
1462 1459 1460 1456 1455 1454 1453 1451 1450 1449 1447 1446 1445 1443 1441 1440 1438 1437 1436 1435 1434 1433 1431 1431 1430 1429 1429 1428 1428 1428 1428 1428 1428 1428 1429 1429 1430 1431 1432 1433 1433 1434 1435 1435
1457 1456 1455 1453 1452 1451 1449 1447 1446 1445 1444 1443 1441 1440 1439 1437 1436 1435 1434 1432 1431 1430 1429 1429 1428 1427 1427 1426 1426 1425 1425 1425 1425 1425 1426 1426 1426 1427 1427 1429 1430 1430 1431 1431
1454 1454 1451 1449 1448 1447 1446 1444 1443 1441 1440 1440 1439 1438 1436 1435 1434 1433 1431 1430 1429 1429 1428 1427 1426 1425 1424 1424 1424 1423 1423 1423 1423 1423 1423 1423 1424 1424 1425 1424 1425 1425 1427 1427
1451 1450 1449 1447 1445 1444 1443 1441 1440 1438 1437 1436 1436 1435 1433 1432 1431 1430 1429 1428 1427 1426 1426 1425 1424 1423 1423 1422 1421 1421 1421 1421 1421 1421 1421 1421 1422 1422 1422 1422 1422 1422 1422 1423
1447 1446 1445 1444 1442 1441 1440 1439 1437 1436 1435 1434 1433 1432 1431 1430 1429 1428 1427 1426 1425 1424 1424 1423 1422 1421 1421 1420 1420 1419 1419 1419 1419 1419 1419 1419 1419 1419 1419 1419 1419 1419 1419 1419
1445 1443 1442 1441 1440 1439 1438 1437 1436 1434 1433 1432 1431 1430 1429 1428 1427 1426 1425 1424 1424 1423 1422 1421 1420 1420 1419 1418 1418 1418 1417 1417 1417 1417 1417 1416 1416 1416 1416 1416 1416 1416 1416 1416
1444 1443 1441 1440 1439 1437 1436 1435 1434 1433 1431 1430 1429 1428 1427 1426 1425 1424 1423 1423 1422 1421 1421 1420 1419 1418 1417 1417 1416 1416 1415 1415 1415 1415 1414 1414 1414 1414 1414 1413 1413 1413 1412 1412
1441 1440 1439 1438 1437 1436 1435 1433 1432 1431 1430 1429 1428 1427 1426 1425 1424 1423 1422 1421 1420 1419 1419 1418 1417 1416 1415 1415 1414 1414 1414 1413 1413 1412 1412 1412 1411 1411 1411 1410 1410 1409 1409 1408
1439 1438 1437 1436 1436 1435 1433 1432 1431 1430 1429 1427 1426 1425 1424 1423 1422 1421 1420 1419 1418 1418 1417 1416 1416 1415 1414 1413 1412 1412 1411 1411 1410 1409 1409 1408 1408 1408 1407 1407 1406 1406 1405 1404
1438 1437 1436 1435 1434 1433 1432 1431 1430 1428 1427 1426 1424 1423 1422 1421 1421 1420 1418 1417 1417 1416 1415 1414 1413 1412 1411 1411 1410 1409 1409 1408 1407 1407 1406 1405 1405 1404 1404 1403 1402 1402 1401 1400
1436 1435 1434 1434 1432 1431 1431 1429 1428 1427 1425 1424 1423 1422 1421 1420 1419 1418 1416 1416 1415 1414 1413 1412 1411 1410 1409 1408 1407 1406 1405 1405 1404 1403 1403 1402 1401 1400 1400 1399 1399 1398 1397 1396
1435 1434 1433 1432 1431 1430 1429 1428 1427 1425 1424 1423 1421 1420 1419 1418 1417 1415 1414 1413 1412 1411 1410 1409 1408 1407 1407 1405 1404 1403 1402 1401 1401 1400 1399 1398 1398 1397 1396 1395 1395 1394 1393 1392
1434 1433 1432 1431 1430 1429 1427 1426 1425 1424 1423 1421 1420 1419 1417 1415 1414 1413 1412 1411 1410 1409 1407 1406 1405 1404 1403 1402 1401 1400 1399 1398 1397 1396 1396 1395 1394 1393 1392 1392 1391 1390 1389 1388
1433 1432 1431 1430 1428 1427 1426 1425 1423 1422 1421 1419 1418 1416 1415 1413 1412 1410 1409 1408 1406 1405 1404 1403 1402 1401 1399 1398 1397 1396 1395 1394 1394 1393 1392 1391 1390 1390 1389 1388 1386 1385 1384 1383
1432 1431 1430 1428 1427 1426 1425 1423 1422 1420 1419 1417 1415 1414 1412 1411 1409 1407 1406 1404 1403 1402 1401 1399 1398 1397 1396 1395 1394 1393 1392 1391 1390 1390 1389 1388 1387 1386 1384 1383 1382 1381 1380 1379
1430 1429 1428 1427 1426 1425 1423 1422 1420 1419 1417 1415 1413 1411 1410 1408 1406 1405 1403 1401 1400 1399 1397 1396 1395 1393 1392 1391 1390 1389 1388 1387 1387 1386 1385 1384 1383 1381 1380 1379 1378 1377 1375 1374